Showing default

COSMOS 1603, 15333

Orbit data source: Space-Track

COSMOS 1603, 15333 is a payload satellite owned by TsNII-108 (CIS) in LEO that was launched on Fri, 28 Sep 1984 UTC via a PROTON-K/DM-2 launch vehicle from the Tyuratam Missile And Space Complex (TTMTR). Payload-class satellites include a variety of spacecraft equipped with specific instruments for various scientific and technological missions. These include communications satellites like Starlink; space stations such as the ISS; scientific satellites like the Hubble; Earth observation satellites from companies like Planet Labs, Umbra, and HawkEye 360; GPS; miniature CubeSats for education and research; and military/defense satellites.

Loading next visibility...
Identifier
15333, 1984-106A
Orbit
LEO
Country
Flag of CISCIS
Related business
Manufacturer
Yuzhnoe
Mission
Spacecraft
Bus & Motor
TSELINA-2, Unknown motor
Mass
3,250 kg wet, 3,250 kg dry
Launch date (UTC)
1984-09-28 (42 years ago)
Launch vehicle
PROTON-K/DM-2
Launch site
Tyuratam Missile And Space Complex (TTMTR)
Object type
Payload
Rocket body
Debris
Shape & HBR
Unknown
Radar Cross Section
Large (>1 m²)

Expand to show TLE details & history
Last TLE update: 2 days ago

TLE from 2 days ago
0 COSMOS 1603
1 15333U 84106A   26171.39556212  .00000199  00000-0  12811-3 0  9999
2 15333  71.0265  41.1356 0021289 239.4274 120.4748 14.14517244153199
Epoch: 2026-06-20T09:29Z
TLE epoch observation values (Epoch: 2026-06-20T09:29:36.567Z)
Latitude
-0.00004°
Longitude
-9.87757°
Altitude
854.179 km
Speed
7.422 km/s
True Right ascension
02h 44m 32s
True Declination
0° 00' 00"
Sunlit
Object was in daylight at epoch
Visualization orbit readout
Latitude
Unknown
Longitude
Unknown
Altitude
Unknown
Speed
Unknown
Apparent Right ascension
Unknown
Apparent Declination
Unknown
Sunlit
N/A
Visualization observer readout
Local Sidereal Time
23:21:05
Azimuth
Unknown
Elevation
Unknown
Doppler factor
Unknown
Orbital elements
Apogee altitude
857.248 km
Perigee altitude
826.507 km
Semi-major axis
7,220.015 km
Eccentricity
0.00213
Inclination
71.0265°
RAAN
41.1356°
Arg. of periapsis
239.4274°
True anomaly
120.68477°
Mean anomaly
120.4748°
Eccentric anomaly
120.57981°
Mean motion
3.53782 °/min
Orbital period
101.76 mins
BSTAR
0.00012811
Loading maneuver chart data...
Computing Atmospheric mass density...

Documentation

Showing up to 5 results
|